Location: Starlight Observatory
(38.4029°N, 85.8936°W)
Time: 03:25:54
(UTC-04:00)

Iridium 62 - Visible Passes

Search period start: 06 May 2015 00:00
Search period end: 16 May 2015 00:00
Orbit: 776 x 779 km, 86.4° (Epoch: 05 May)

Date Brightness Start Highest point End Pass type
(mag) Time Alt. Az. Time Alt. Az. Time Alt. Az.
06 May 7.6 00:27:52 24° W 00:28:12 24° WNW 00:32:18 10° NNW visible
06 May 7.3 22:13:38 19° E 22:14:00 19° E 22:17:42 10° NE visible
06 May 6.6 23:54:04 43° W 23:54:26 44° W 23:59:24 10° NNW visible
07 May 5.7 23:20:15 71° SSW 23:20:51 83° W 23:26:05 10° N visible
08 May 6.0 22:46:26 46° ESE 22:47:21 52° E 22:52:26 10° NNE visible
09 May 8.1 00:26:52 15° W 00:28:31 16° WNW 00:31:39 10° NW visible
09 May 6.8 22:12:35 24° ESE 22:13:59 28° E 22:18:24 10° NNE visible
09 May 7.3 23:53:01 25° WSW 23:54:39 30° W 23:59:11 10° NNW visible
10 May 7.5 21:38:42 12° ESE 21:40:40 15° E 21:43:39 10° NE visible
10 May 6.3 23:19:08 37° SW 23:20:58 57° W 23:26:06 10° N visible
11 May 5.7 22:45:14 36° S 22:47:24 77° E 22:52:38 10° N visible
12 May 8.5 00:27:19 10° W 00:28:54 11° WNW 00:30:09 10° WNW visible
12 May 6.3 22:11:18 23° SE 22:13:58 40° E 22:18:51 10° NNE visible
12 May 7.9 23:51:44 13° WSW 23:54:55 21° WNW 23:58:45 10° NNW visible
13 May 7.1 21:37:20 12° SE 21:40:37 22° E 21:44:36 10° NNE visible
13 May 7.0 23:17:47 18° SW 23:21:07 38° W 23:25:58 10° NNW visible
14 May 6.0 22:43:47 19° S 22:47:29 73° W 22:52:43 10° N visible
15 May 5.9 22:09:45 15° SSE 22:13:59 59° E 22:19:08 10° N visible
15 May 8.4 23:52:20 10° WSW 23:55:16 14° WNW 23:57:56 10° NW visible
